Year,Month,Day,Hour,Minute,Value (Times are PST for temperature in C)
2008,07,11,00,00,12.80
2008,07,11,00,01,12.80
2008,07,11,00,02,12.80
2008,07,11,00,03,12.70
2008,07,11,00,04,12.70
2008,07,11,00,05,12.70
2008,07,11,00,06,12.70
2008,07,11,00,07,12.70
2008,07,11,00,08,12.70
2008,07,11,00,09,12.60
2008,07,11,00,10,12.60
2008,07,11,00,11,12.50
2008,07,11,00,12,12.50
2008,07,11,00,13,12.50
2008,07,11,00,14,12.50
2008,07,11,00,15,12.50
2008,07,11,00,16,12.50
2008,07,11,00,17,12.50
2008,07,11,00,18,12.40
2008,07,11,00,19,12.40
2008,07,11,00,20,12.40
2008,07,11,00,21,12.40
2008,07,11,00,22,12.30
2008,07,11,00,23,12.30
2008,07,11,00,24,12.30
2008,07,11,00,25,12.30
2008,07,11,00,26,12.30
2008,07,11,00,27,12.30
2008,07,11,00,28,12.30
2008,07,11,00,29,12.20
2008,07,11,00,30,12.20
2008,07,11,00,31,12.20
2008,07,11,00,32,12.20
2008,07,11,00,33,12.20
2008,07,11,00,34,12.20
2008,07,11,00,35,12.20
2008,07,11,00,36,12.10
2008,07,11,00,37,12.10
2008,07,11,00,38,12.10
2008,07,11,00,39,12.10
2008,07,11,00,40,12.00
2008,07,11,00,41,12.00
2008,07,11,00,42,12.00
2008,07,11,00,43,12.00
2008,07,11,00,44,11.90
2008,07,11,00,45,11.90
2008,07,11,00,46,11.90
2008,07,11,00,47,11.90
2008,07,11,00,48,11.80
2008,07,11,00,49,11.80
2008,07,11,00,50,11.80
2008,07,11,00,51,11.80
2008,07,11,00,52,11.70
2008,07,11,00,53,11.70
2008,07,11,00,54,11.60
2008,07,11,00,55,11.60
2008,07,11,00,56,11.60
2008,07,11,00,57,11.60
2008,07,11,00,58,11.60
2008,07,11,00,59,11.60
2008,07,11,01,00,11.50
2008,07,11,01,01,11.40
2008,07,11,01,02,11.40
2008,07,11,01,03,11.40
2008,07,11,01,04,11.40
2008,07,11,01,05,11.40
2008,07,11,01,06,11.40
2008,07,11,01,07,11.40
2008,07,11,01,08,11.30
2008,07,11,01,09,11.30
2008,07,11,01,10,11.30
2008,07,11,01,11,11.30
2008,07,11,01,12,11.20
2008,07,11,01,13,11.20
2008,07,11,01,14,11.20
2008,07,11,01,15,11.20
2008,07,11,01,16,11.10
2008,07,11,01,17,11.10
2008,07,11,01,18,11.10
2008,07,11,01,19,11.10
2008,07,11,01,20,11.10
2008,07,11,01,21,11.10
2008,07,11,01,22,11.10
2008,07,11,01,23,11.10
2008,07,11,01,24,11.10
2008,07,11,01,25,11.10
2008,07,11,01,26,11.10
2008,07,11,01,27,11.00
2008,07,11,01,28,10.90
2008,07,11,01,29,10.90
2008,07,11,01,30,10.90
2008,07,11,01,31,10.90
2008,07,11,01,32,10.90
2008,07,11,01,33,10.90
2008,07,11,01,34,10.90
2008,07,11,01,35,10.90
2008,07,11,01,36,10.90
2008,07,11,01,37,10.90
2008,07,11,01,38,10.90
2008,07,11,01,39,10.90
2008,07,11,01,40,10.90
2008,07,11,01,41,10.90
2008,07,11,01,42,10.90
2008,07,11,01,43,10.80
2008,07,11,01,44,10.80
2008,07,11,01,45,10.80
2008,07,11,01,46,10.80
2008,07,11,01,47,10.80
2008,07,11,01,48,10.80
2008,07,11,01,49,10.80
2008,07,11,01,50,10.80
2008,07,11,01,51,10.80
2008,07,11,01,52,10.70
2008,07,11,01,53,10.70
2008,07,11,01,54,10.70
2008,07,11,01,55,10.70
2008,07,11,01,56,10.70
2008,07,11,01,57,10.70
2008,07,11,01,58,10.70
2008,07,11,01,59,10.70
2008,07,11,02,00,10.70
2008,07,11,02,01,10.70
2008,07,11,02,02,10.70
2008,07,11,02,03,10.70
2008,07,11,02,04,10.70
2008,07,11,02,05,10.70
2008,07,11,02,06,10.70
2008,07,11,02,07,10.70
2008,07,11,02,08,10.70
2008,07,11,02,09,10.70
2008,07,11,02,10,10.70
2008,07,11,02,11,10.70
2008,07,11,02,12,10.70
2008,07,11,02,13,10.80
2008,07,11,02,14,10.80
2008,07,11,02,15,10.80
2008,07,11,02,16,10.80
2008,07,11,02,17,10.80
2008,07,11,02,18,10.80
2008,07,11,02,19,10.80
2008,07,11,02,20,10.80
2008,07,11,02,21,10.80
2008,07,11,02,22,10.80
2008,07,11,02,23,10.80
2008,07,11,02,24,10.80
2008,07,11,02,25,10.80
2008,07,11,02,26,10.80
2008,07,11,02,27,10.80
2008,07,11,02,28,10.80
2008,07,11,02,29,10.80
2008,07,11,02,30,10.80
2008,07,11,02,31,10.90
2008,07,11,02,32,10.90
2008,07,11,02,33,10.90
2008,07,11,02,34,11.00
2008,07,11,02,35,11.10
2008,07,11,02,36,11.10
2008,07,11,02,37,11.20
2008,07,11,02,38,11.30
2008,07,11,02,39,11.40
2008,07,11,02,40,11.50
2008,07,11,02,41,11.60
2008,07,11,02,42,11.60
2008,07,11,02,43,11.60
2008,07,11,02,44,11.70
2008,07,11,02,45,11.70
2008,07,11,02,46,11.70
2008,07,11,02,47,11.80
2008,07,11,02,48,11.80
2008,07,11,02,49,11.80
2008,07,11,02,50,11.80
2008,07,11,02,51,11.80
2008,07,11,02,52,11.80
2008,07,11,02,53,11.80
2008,07,11,02,54,11.80
2008,07,11,02,55,11.90
2008,07,11,02,56,11.90
2008,07,11,02,57,12.00
2008,07,11,02,58,12.10
2008,07,11,02,59,12.20
2008,07,11,03,00,12.30
2008,07,11,03,01,12.30
2008,07,11,03,02,12.40
2008,07,11,03,03,12.50
2008,07,11,03,04,12.60
2008,07,11,03,05,12.60
2008,07,11,03,06,12.70
2008,07,11,03,07,12.80
2008,07,11,03,08,12.80
2008,07,11,03,09,12.90
2008,07,11,03,10,12.90
2008,07,11,03,11,13.00
2008,07,11,03,12,13.00
2008,07,11,03,13,13.10
2008,07,11,03,14,13.10
2008,07,11,03,15,13.10
2008,07,11,03,16,13.10
2008,07,11,03,17,13.10
2008,07,11,03,18,13.10
2008,07,11,03,19,13.10
2008,07,11,03,20,13.10
2008,07,11,03,21,13.10
2008,07,11,03,22,13.10
2008,07,11,03,23,13.10
2008,07,11,03,24,13.00
2008,07,11,03,25,13.00
2008,07,11,03,26,13.00
2008,07,11,03,27,12.90
2008,07,11,03,28,12.80
2008,07,11,03,29,12.80
2008,07,11,03,30,12.70
2008,07,11,03,31,12.70
2008,07,11,03,32,12.60
2008,07,11,03,33,12.50
2008,07,11,03,34,12.50
2008,07,11,03,35,12.30
2008,07,11,03,36,12.30
2008,07,11,03,37,12.20
2008,07,11,03,38,12.10
2008,07,11,03,39,12.00
2008,07,11,03,40,11.80
2008,07,11,03,41,11.80
2008,07,11,03,42,11.70
2008,07,11,03,43,11.60
2008,07,11,03,44,11.60
2008,07,11,03,45,11.50
2008,07,11,03,46,11.40
2008,07,11,03,47,11.30
2008,07,11,03,48,11.30
2008,07,11,03,49,11.20
2008,07,11,03,50,11.20
2008,07,11,03,51,11.10
2008,07,11,03,52,11.10
2008,07,11,03,53,11.10
2008,07,11,03,54,11.00
2008,07,11,03,55,10.90
2008,07,11,03,56,10.90
2008,07,11,03,57,10.90
2008,07,11,03,58,10.90
2008,07,11,03,59,10.90
2008,07,11,04,00,10.90
2008,07,11,04,01,10.90
2008,07,11,04,02,10.90
2008,07,11,04,03,10.80
2008,07,11,04,04,10.80
2008,07,11,04,05,10.80
2008,07,11,04,06,10.80
2008,07,11,04,07,10.80
2008,07,11,04,08,10.70
2008,07,11,04,09,10.70
2008,07,11,04,10,10.70
2008,07,11,04,11,10.60
2008,07,11,04,12,10.60
2008,07,11,04,13,10.60
2008,07,11,04,14,10.60
2008,07,11,04,15,10.60
2008,07,11,04,16,10.60
2008,07,11,04,17,10.60
2008,07,11,04,18,10.60
2008,07,11,04,19,10.60
2008,07,11,04,20,10.60
2008,07,11,04,21,10.60
2008,07,11,04,22,10.60
2008,07,11,04,23,10.60
2008,07,11,04,24,10.60
2008,07,11,04,25,10.60
2008,07,11,04,26,10.60
2008,07,11,04,27,10.60
2008,07,11,04,28,10.60
2008,07,11,04,29,10.60
2008,07,11,04,30,10.60
2008,07,11,04,31,10.50
2008,07,11,04,32,10.40
2008,07,11,04,33,10.50
2008,07,11,04,34,10.60
2008,07,11,04,35,10.60
2008,07,11,04,36,10.40
2008,07,11,04,37,10.50
2008,07,11,04,38,10.40
2008,07,11,04,39,10.40
2008,07,11,04,40,10.40
2008,07,11,04,41,10.40
2008,07,11,04,42,10.40
2008,07,11,04,43,10.40
2008,07,11,04,44,10.40
2008,07,11,04,45,10.40
2008,07,11,04,46,10.40
2008,07,11,04,47,10.50
2008,07,11,04,48,10.60
2008,07,11,04,49,10.50
2008,07,11,04,50,10.40
2008,07,11,04,51,10.40
2008,07,11,04,52,10.40
2008,07,11,04,53,10.40
2008,07,11,04,54,10.40
2008,07,11,04,55,10.40
2008,07,11,04,56,10.40
2008,07,11,04,57,10.40
2008,07,11,04,58,10.40
2008,07,11,04,59,10.40
2008,07,11,05,00,10.40
2008,07,11,05,01,10.40
2008,07,11,05,02,10.40
2008,07,11,05,03,10.40
2008,07,11,05,04,10.40
2008,07,11,05,05,10.40
2008,07,11,05,06,10.40
2008,07,11,05,07,10.40
2008,07,11,05,08,10.40
2008,07,11,05,09,10.40
2008,07,11,05,10,10.40
2008,07,11,05,11,10.40
2008,07,11,05,12,10.60
2008,07,11,05,13,10.60
2008,07,11,05,14,10.60
2008,07,11,05,15,10.60
2008,07,11,05,16,10.70
2008,07,11,05,17,10.70
2008,07,11,05,18,10.80
2008,07,11,05,19,10.80
2008,07,11,05,20,10.90
2008,07,11,05,21,10.90
2008,07,11,05,22,10.90
2008,07,11,05,23,10.90
2008,07,11,05,24,10.90
2008,07,11,05,25,10.90
2008,07,11,05,26,10.90
2008,07,11,05,27,11.00
2008,07,11,05,28,11.10
2008,07,11,05,29,11.10
2008,07,11,05,30,11.10
2008,07,11,05,31,11.20
2008,07,11,05,32,11.20
2008,07,11,05,33,11.20
2008,07,11,05,34,11.30
2008,07,11,05,35,11.30
2008,07,11,05,36,11.30
2008,07,11,05,37,11.30
2008,07,11,05,38,11.40
2008,07,11,05,39,11.40
2008,07,11,05,40,11.40
2008,07,11,05,41,11.40
2008,07,11,05,42,11.40
2008,07,11,05,43,11.40
2008,07,11,05,44,11.40
2008,07,11,05,45,11.40
2008,07,11,05,46,11.40
2008,07,11,05,47,11.40
2008,07,11,05,48,11.40
2008,07,11,05,49,11.40
2008,07,11,05,50,11.40
2008,07,11,05,51,11.40
2008,07,11,05,52,11.40
2008,07,11,05,53,11.40
2008,07,11,05,54,11.40
2008,07,11,05,55,11.30
2008,07,11,05,56,11.30
2008,07,11,05,57,11.30
2008,07,11,05,58,11.20
2008,07,11,05,59,11.20
2008,07,11,06,00,11.20
2008,07,11,06,01,11.10
2008,07,11,06,02,11.10
2008,07,11,06,03,11.10
2008,07,11,06,04,11.10
2008,07,11,06,05,11.10
2008,07,11,06,06,11.10
2008,07,11,06,07,11.10
2008,07,11,06,08,11.10
2008,07,11,06,09,11.10
2008,07,11,06,10,11.10
2008,07,11,06,11,11.10
2008,07,11,06,12,11.10
2008,07,11,06,13,11.10
2008,07,11,06,14,11.00
2008,07,11,06,15,10.90
2008,07,11,06,16,10.90
2008,07,11,06,17,10.90
2008,07,11,06,18,10.80
2008,07,11,06,19,10.80
2008,07,11,06,20,10.80
2008,07,11,06,21,10.80
2008,07,11,06,22,10.80
2008,07,11,06,23,10.80
2008,07,11,06,24,10.80
2008,07,11,06,25,10.80
2008,07,11,06,26,10.80
2008,07,11,06,27,10.80
2008,07,11,06,28,10.80
2008,07,11,06,29,10.80
2008,07,11,06,30,10.80
2008,07,11,06,31,10.80
2008,07,11,06,32,10.80
2008,07,11,06,33,10.80
2008,07,11,06,34,10.90
2008,07,11,06,35,10.90
2008,07,11,06,36,10.90
2008,07,11,06,37,10.90
2008,07,11,06,38,11.00
2008,07,11,06,39,11.10
2008,07,11,06,40,11.10
2008,07,11,06,41,11.10
2008,07,11,06,42,11.10
2008,07,11,06,43,11.10
2008,07,11,06,44,11.10
2008,07,11,06,45,11.10
2008,07,11,06,46,11.10
2008,07,11,06,47,11.10
2008,07,11,06,48,11.10
2008,07,11,06,49,11.10
2008,07,11,06,50,11.10
2008,07,11,06,51,11.10
2008,07,11,06,52,11.20
2008,07,11,06,53,11.20
2008,07,11,06,54,11.30
2008,07,11,06,55,11.30
2008,07,11,06,56,11.40
2008,07,11,06,57,11.40
2008,07,11,06,58,11.50
2008,07,11,06,59,11.60
2008,07,11,07,00,11.60
2008,07,11,07,01,11.60
2008,07,11,07,02,11.60
2008,07,11,07,03,11.60
2008,07,11,07,04,11.60
2008,07,11,07,05,11.60
2008,07,11,07,06,11.60
2008,07,11,07,07,11.70
2008,07,11,07,08,11.70
2008,07,11,07,09,11.70
2008,07,11,07,10,11.80
2008,07,11,07,11,11.80
2008,07,11,07,12,11.80
2008,07,11,07,13,11.90
2008,07,11,07,14,12.00
2008,07,11,07,15,12.00
2008,07,11,07,16,12.10
2008,07,11,07,17,12.10
2008,07,11,07,18,12.20
2008,07,11,07,19,12.20
2008,07,11,07,20,12.30
2008,07,11,07,21,12.30
2008,07,11,07,22,12.30
2008,07,11,07,23,12.30
2008,07,11,07,24,12.30
2008,07,11,07,25,12.40
2008,07,11,07,26,12.40
2008,07,11,07,27,12.40
2008,07,11,07,28,12.50
2008,07,11,07,29,12.50
2008,07,11,07,30,12.50
2008,07,11,07,31,12.50
2008,07,11,07,32,12.50
2008,07,11,07,33,12.60
2008,07,11,07,34,12.70
2008,07,11,07,35,12.80
2008,07,11,07,36,12.80
2008,07,11,07,37,12.90
2008,07,11,07,38,13.00
2008,07,11,07,39,13.00
2008,07,11,07,40,13.10
2008,07,11,07,41,13.20
2008,07,11,07,42,13.30
2008,07,11,07,43,13.30
2008,07,11,07,44,13.40
2008,07,11,07,45,13.50
2008,07,11,07,46,13.50
2008,07,11,07,47,13.60
2008,07,11,07,48,13.70
2008,07,11,07,49,13.70
2008,07,11,07,50,13.80
2008,07,11,07,51,13.80
2008,07,11,07,52,13.80
2008,07,11,07,53,13.80
2008,07,11,07,54,13.80
2008,07,11,07,55,13.90
2008,07,11,07,56,14.00
2008,07,11,07,57,14.00
2008,07,11,07,58,14.00
2008,07,11,07,59,14.00
2008,07,11,08,00,14.10
2008,07,11,08,01,14.10
2008,07,11,08,02,14.10
2008,07,11,08,03,14.00
2008,07,11,08,04,14.00
2008,07,11,08,05,14.00
2008,07,11,08,06,14.00
2008,07,11,08,07,14.00
2008,07,11,08,08,14.00
2008,07,11,08,09,14.00
2008,07,11,08,10,14.00
2008,07,11,08,11,14.00
2008,07,11,08,12,14.00
2008,07,11,08,13,14.00
2008,07,11,08,14,14.00
2008,07,11,08,15,14.00
2008,07,11,08,16,14.00
2008,07,11,08,17,14.10
2008,07,11,08,18,14.10
2008,07,11,08,19,14.10
2008,07,11,08,20,14.10
2008,07,11,08,21,14.10
2008,07,11,08,22,14.10
2008,07,11,08,23,14.10
2008,07,11,08,24,14.10
2008,07,11,08,25,14.10
2008,07,11,08,26,14.10
2008,07,11,08,27,14.10
2008,07,11,08,28,14.10
2008,07,11,08,29,14.20
2008,07,11,08,30,14.20
2008,07,11,08,31,14.20
2008,07,11,08,32,14.20
2008,07,11,08,33,14.30
2008,07,11,08,34,14.40
2008,07,11,08,35,14.40
2008,07,11,08,36,14.40
2008,07,11,08,37,14.40
2008,07,11,08,38,14.30
2008,07,11,08,39,14.30
2008,07,11,08,40,14.20
2008,07,11,08,41,14.20
2008,07,11,08,42,14.20
2008,07,11,08,43,14.20
2008,07,11,08,44,14.20
2008,07,11,08,45,14.20
2008,07,11,08,46,14.30
2008,07,11,08,47,14.40
2008,07,11,08,48,14.40
2008,07,11,08,49,14.40
2008,07,11,08,50,14.40
2008,07,11,08,51,14.40
2008,07,11,08,52,14.40
2008,07,11,08,53,14.30
2008,07,11,08,54,14.20
2008,07,11,08,55,14.20
2008,07,11,08,56,14.20
2008,07,11,08,57,14.20
2008,07,11,08,58,14.20
2008,07,11,08,59,14.30
2008,07,11,09,00,14.40
2008,07,11,09,01,14.50
2008,07,11,09,02,14.50
2008,07,11,09,03,14.60
2008,07,11,09,04,14.60
2008,07,11,09,05,14.60
2008,07,11,09,06,14.60
2008,07,11,09,07,14.60
2008,07,11,09,08,14.60
2008,07,11,09,09,14.60
2008,07,11,09,10,14.50
2008,07,11,09,11,14.40
2008,07,11,09,12,14.40
2008,07,11,09,13,14.30
2008,07,11,09,14,14.30
2008,07,11,09,15,14.40
2008,07,11,09,16,14.50
2008,07,11,09,17,14.50
2008,07,11,09,18,14.60
2008,07,11,09,19,14.60
2008,07,11,09,20,14.70
2008,07,11,09,21,14.80
2008,07,11,09,22,14.90
2008,07,11,09,23,15.00
2008,07,11,09,24,15.00
2008,07,11,09,25,15.00
2008,07,11,09,26,14.90
2008,07,11,09,27,14.90
2008,07,11,09,28,14.90
2008,07,11,09,29,14.90
2008,07,11,09,30,14.90
2008,07,11,09,31,14.80
2008,07,11,09,32,14.80
2008,07,11,09,33,14.80
2008,07,11,09,34,14.80
2008,07,11,09,35,14.70
2008,07,11,09,36,14.70
2008,07,11,09,37,14.60
2008,07,11,09,38,14.60
2008,07,11,09,39,14.60
2008,07,11,09,40,14.60
2008,07,11,09,41,14.60
2008,07,11,09,42,14.60
2008,07,11,09,43,14.70
2008,07,11,09,44,14.80
2008,07,11,09,45,14.80
2008,07,11,09,46,14.80
2008,07,11,09,47,14.80
2008,07,11,09,48,14.80
2008,07,11,09,49,14.80
2008,07,11,09,50,14.80
2008,07,11,09,51,14.80
2008,07,11,09,52,14.90
2008,07,11,09,53,14.90
2008,07,11,09,54,14.90
2008,07,11,09,55,14.90
2008,07,11,09,56,14.90
2008,07,11,09,57,15.00
2008,07,11,09,58,15.00
2008,07,11,09,59,15.00
2008,07,11,10,00,15.00
2008,07,11,10,01,15.10
2008,07,11,10,02,15.10
2008,07,11,10,03,15.20
2008,07,11,10,04,15.30
2008,07,11,10,05,15.30
2008,07,11,10,06,15.40
2008,07,11,10,07,15.40
2008,07,11,10,08,15.50
2008,07,11,10,09,15.50
2008,07,11,10,10,15.50
2008,07,11,10,11,15.50
2008,07,11,10,12,15.50
2008,07,11,10,13,15.50
2008,07,11,10,14,15.50
2008,07,11,10,15,15.40
2008,07,11,10,16,15.40
2008,07,11,10,17,15.30
2008,07,11,10,18,15.30
2008,07,11,10,19,15.30
2008,07,11,10,20,15.30
2008,07,11,10,21,15.30
2008,07,11,10,22,15.30
2008,07,11,10,23,15.40
2008,07,11,10,24,15.30
2008,07,11,10,25,15.30
2008,07,11,10,26,15.30
2008,07,11,10,27,15.40
2008,07,11,10,28,15.50
2008,07,11,10,29,15.60
2008,07,11,10,30,15.50
2008,07,11,10,31,15.60
2008,07,11,10,32,15.60
2008,07,11,10,33,15.70
2008,07,11,10,34,15.80
2008,07,11,10,35,15.80
2008,07,11,10,36,15.80
2008,07,11,10,37,15.80
2008,07,11,10,38,15.80
2008,07,11,10,39,15.90
2008,07,11,10,40,16.10
2008,07,11,10,41,16.10
2008,07,11,10,42,16.10
2008,07,11,10,43,16.10
2008,07,11,10,44,16.10
2008,07,11,10,45,16.10
2008,07,11,10,46,16.20
2008,07,11,10,47,16.20
2008,07,11,10,48,16.20
2008,07,11,10,49,16.30
2008,07,11,10,50,16.40
2008,07,11,10,51,16.50
2008,07,11,10,52,16.50
2008,07,11,10,53,16.40
2008,07,11,10,54,16.40
2008,07,11,10,55,16.60
2008,07,11,10,56,16.60
2008,07,11,10,57,16.60
2008,07,11,10,58,16.60
2008,07,11,10,59,16.60
2008,07,11,11,00,16.60
2008,07,11,11,01,16.60
2008,07,11,11,02,16.60
2008,07,11,11,03,16.70
2008,07,11,11,04,16.70
2008,07,11,11,05,16.80
2008,07,11,11,06,16.70
2008,07,11,11,07,16.70
2008,07,11,11,08,16.70
2008,07,11,11,09,16.70
2008,07,11,11,10,16.70
2008,07,11,11,11,16.80
2008,07,11,11,12,16.80
2008,07,11,11,13,16.80
2008,07,11,11,14,16.70
2008,07,11,11,15,16.70
2008,07,11,11,16,16.70
2008,07,11,11,17,16.60
2008,07,11,11,18,16.60
2008,07,11,11,19,16.40
2008,07,11,11,20,16.40
2008,07,11,11,21,16.60
2008,07,11,11,22,16.60
2008,07,11,11,23,16.50
2008,07,11,11,24,16.40
2008,07,11,11,25,16.50
2008,07,11,11,26,16.60
2008,07,11,11,27,16.80
2008,07,11,11,28,16.90
2008,07,11,11,29,16.90
2008,07,11,11,30,17.00
2008,07,11,11,31,17.20
2008,07,11,11,32,17.30
2008,07,11,11,33,17.30
2008,07,11,11,34,17.50
2008,07,11,11,35,17.50
2008,07,11,11,36,17.50
2008,07,11,11,37,17.50
2008,07,11,11,38,17.50
2008,07,11,11,39,17.50
2008,07,11,11,40,17.70
2008,07,11,11,41,17.80
2008,07,11,11,42,17.80
2008,07,11,11,43,17.90
2008,07,11,11,44,17.90
2008,07,11,11,45,17.90
2008,07,11,11,46,17.90
2008,07,11,11,47,17.80
2008,07,11,11,48,17.50
2008,07,11,11,49,17.40
2008,07,11,11,50,17.20
2008,07,11,11,51,17.10
2008,07,11,11,52,17.10
2008,07,11,11,53,17.00
2008,07,11,11,54,17.00
2008,07,11,11,55,17.00
2008,07,11,11,56,17.10
2008,07,11,11,57,17.30
2008,07,11,11,58,17.30
2008,07,11,11,59,17.30
2008,07,11,12,00,17.30
2008,07,11,12,01,17.20
2008,07,11,12,02,17.10
2008,07,11,12,03,17.10
2008,07,11,12,04,17.10
2008,07,11,12,05,17.10
2008,07,11,12,06,17.10
2008,07,11,12,07,17.10
2008,07,11,12,08,17.10
2008,07,11,12,09,17.20
2008,07,11,12,10,17.30
2008,07,11,12,11,17.30
2008,07,11,12,12,17.30
2008,07,11,12,13,17.30
2008,07,11,12,14,17.30
2008,07,11,12,15,17.30
2008,07,11,12,16,17.30
2008,07,11,12,17,17.40
2008,07,11,12,18,17.40
2008,07,11,12,19,17.40
2008,07,11,12,20,17.40
2008,07,11,12,21,17.40
2008,07,11,12,22,17.30
2008,07,11,12,23,17.30
2008,07,11,12,24,17.30
2008,07,11,12,25,17.30
2008,07,11,12,26,17.30
2008,07,11,12,27,17.50
2008,07,11,12,28,17.70
2008,07,11,12,29,17.80
2008,07,11,12,30,17.90
2008,07,11,12,31,18.00
2008,07,11,12,32,18.10
2008,07,11,12,33,18.20
2008,07,11,12,34,18.30
2008,07,11,12,35,18.30
2008,07,11,12,36,18.20
2008,07,11,12,37,18.40
2008,07,11,12,38,18.50
2008,07,11,12,39,18.60
2008,07,11,12,40,18.70
2008,07,11,12,41,18.60
2008,07,11,12,42,18.60
2008,07,11,12,43,18.60
2008,07,11,12,44,18.70
2008,07,11,12,45,18.70
2008,07,11,12,46,18.60
2008,07,11,12,47,18.40
2008,07,11,12,48,18.30
2008,07,11,12,49,18.30
2008,07,11,12,50,18.40
2008,07,11,12,51,18.40
2008,07,11,12,52,18.20
2008,07,11,12,53,18.10
2008,07,11,12,54,18.10
2008,07,11,12,55,18.10
2008,07,11,12,56,18.10
2008,07,11,12,57,18.10
2008,07,11,12,58,18.10
2008,07,11,12,59,18.10
2008,07,11,13,00,18.20
2008,07,11,13,01,18.20
2008,07,11,13,02,18.30
2008,07,11,13,03,18.40
2008,07,11,13,04,18.60
2008,07,11,13,05,18.70
2008,07,11,13,06,18.80
2008,07,11,13,07,18.80
2008,07,11,13,08,18.70
2008,07,11,13,09,18.70
2008,07,11,13,10,18.70
2008,07,11,13,11,18.80
2008,07,11,13,12,18.90
2008,07,11,13,13,19.10
2008,07,11,13,14,19.10
2008,07,11,13,15,19.20
2008,07,11,13,16,19.20
2008,07,11,13,17,19.30
2008,07,11,13,18,19.40
2008,07,11,13,19,19.60
2008,07,11,13,20,19.60
2008,07,11,13,21,19.70
2008,07,11,13,22,19.70
2008,07,11,13,23,19.70
2008,07,11,13,24,19.70
2008,07,11,13,25,19.70
2008,07,11,13,26,19.60
2008,07,11,13,27,19.60
2008,07,11,13,28,19.50
2008,07,11,13,29,19.60
2008,07,11,13,30,19.60
2008,07,11,13,31,19.60
2008,07,11,13,32,19.60
2008,07,11,13,33,19.60
2008,07,11,13,34,19.60
2008,07,11,13,35,19.50
2008,07,11,13,36,19.50
2008,07,11,13,37,19.50
2008,07,11,13,38,19.40
2008,07,11,13,39,19.40
2008,07,11,13,40,19.40
2008,07,11,13,41,19.50
2008,07,11,13,42,19.60
2008,07,11,13,43,19.60
2008,07,11,13,44,19.50
2008,07,11,13,45,19.50
2008,07,11,13,46,19.50
2008,07,11,13,47,19.60
2008,07,11,13,48,19.50
2008,07,11,13,49,19.50
2008,07,11,13,50,19.60
2008,07,11,13,51,19.70
2008,07,11,13,52,19.80
2008,07,11,13,53,19.90
2008,07,11,13,54,19.80
2008,07,11,13,55,19.70
2008,07,11,13,56,19.60
2008,07,11,13,57,19.40
2008,07,11,13,58,19.40
2008,07,11,13,59,19.40
2008,07,11,14,00,19.50
2008,07,11,14,01,19.60
2008,07,11,14,02,19.60
2008,07,11,14,03,19.70
2008,07,11,14,04,19.70
2008,07,11,14,05,19.70
2008,07,11,14,06,19.70
2008,07,11,14,07,19.80
2008,07,11,14,08,19.90
2008,07,11,14,09,19.90
2008,07,11,14,10,19.90
2008,07,11,14,11,19.80
2008,07,11,14,12,19.70
2008,07,11,14,13,19.60
2008,07,11,14,14,19.40
2008,07,11,14,15,19.40
2008,07,11,14,16,19.50
2008,07,11,14,17,19.60
2008,07,11,14,18,19.70
2008,07,11,14,19,19.90
2008,07,11,14,20,20.00
2008,07,11,14,21,20.20
2008,07,11,14,22,20.30
2008,07,11,14,23,20.30
2008,07,11,14,24,20.30
2008,07,11,14,25,20.30
2008,07,11,14,26,20.40
2008,07,11,14,27,20.50
2008,07,11,14,28,20.50
2008,07,11,14,29,20.50
2008,07,11,14,30,20.60
2008,07,11,14,31,20.60
2008,07,11,14,32,20.60
2008,07,11,14,33,20.70
2008,07,11,14,34,20.70
2008,07,11,14,35,20.70
2008,07,11,14,36,20.70
2008,07,11,14,37,20.80
2008,07,11,14,38,20.70
2008,07,11,14,39,20.70
2008,07,11,14,40,20.60
2008,07,11,14,41,20.50
2008,07,11,14,42,20.40
2008,07,11,14,43,20.20
2008,07,11,14,44,20.20
2008,07,11,14,45,20.20
2008,07,11,14,46,20.20
2008,07,11,14,47,20.20
2008,07,11,14,48,20.30
2008,07,11,14,49,20.40
2008,07,11,14,50,20.50
2008,07,11,14,51,20.60
2008,07,11,14,52,20.80
2008,07,11,14,53,20.80
2008,07,11,14,54,20.90
2008,07,11,14,55,21.00
2008,07,11,14,56,21.10
2008,07,11,14,57,21.10
2008,07,11,14,58,21.00
2008,07,11,14,59,21.00
2008,07,11,15,00,21.00
2008,07,11,15,01,21.00
2008,07,11,15,02,21.10
2008,07,11,15,03,21.20
2008,07,11,15,04,21.20
2008,07,11,15,05,21.30
2008,07,11,15,06,21.30
2008,07,11,15,07,21.40
2008,07,11,15,08,21.60
2008,07,11,15,09,21.60
2008,07,11,15,10,21.60
2008,07,11,15,11,21.60
2008,07,11,15,12,21.50
2008,07,11,15,13,21.30
2008,07,11,15,14,21.30
2008,07,11,15,15,21.30
2008,07,11,15,16,21.30
2008,07,11,15,17,21.30
2008,07,11,15,18,21.30
2008,07,11,15,19,21.30
2008,07,11,15,20,21.30
2008,07,11,15,21,21.40
2008,07,11,15,22,21.50
2008,07,11,15,23,21.60
2008,07,11,15,24,21.60
2008,07,11,15,25,21.60
2008,07,11,15,26,21.70
2008,07,11,15,27,21.90
2008,07,11,15,28,21.90
2008,07,11,15,29,21.90
2008,07,11,15,30,21.80
2008,07,11,15,31,21.60
2008,07,11,15,32,21.60
2008,07,11,15,33,21.60
2008,07,11,15,34,21.70
2008,07,11,15,35,21.90
2008,07,11,15,36,22.00
2008,07,11,15,37,22.10
2008,07,11,15,38,22.10
2008,07,11,15,39,22.20
2008,07,11,15,40,22.30
2008,07,11,15,41,22.40
2008,07,11,15,42,22.40
2008,07,11,15,43,22.40
2008,07,11,15,44,22.30
2008,07,11,15,45,22.00
2008,07,11,15,46,21.90
2008,07,11,15,47,21.80
2008,07,11,15,48,21.80
2008,07,11,15,49,21.80
2008,07,11,15,50,21.90
2008,07,11,15,51,21.90
2008,07,11,15,52,22.00
2008,07,11,15,53,22.00
2008,07,11,15,54,21.90
2008,07,11,15,55,21.80
2008,07,11,15,56,21.80
2008,07,11,15,57,21.80
2008,07,11,15,58,21.70
2008,07,11,15,59,21.80
2008,07,11,16,00,21.80
2008,07,11,16,01,21.70
2008,07,11,16,02,21.60
2008,07,11,16,03,21.60
2008,07,11,16,04,21.60
2008,07,11,16,05,21.60
2008,07,11,16,06,21.70
2008,07,11,16,07,21.80
2008,07,11,16,08,21.80
2008,07,11,16,09,21.90
2008,07,11,16,10,21.90
2008,07,11,16,11,21.90
2008,07,11,16,12,21.90
2008,07,11,16,13,21.80
2008,07,11,16,14,21.70
2008,07,11,16,15,21.70
2008,07,11,16,16,21.80
2008,07,11,16,17,21.80
2008,07,11,16,18,21.80
2008,07,11,16,19,21.80
2008,07,11,16,20,21.90
2008,07,11,16,21,21.90
2008,07,11,16,22,21.90
2008,07,11,16,23,22.00
2008,07,11,16,24,21.90
2008,07,11,16,25,22.00
2008,07,11,16,26,22.00
2008,07,11,16,27,21.90
2008,07,11,16,28,21.90
2008,07,11,16,29,21.80
2008,07,11,16,30,21.80
2008,07,11,16,31,21.70
2008,07,11,16,32,21.70
2008,07,11,16,33,21.70
2008,07,11,16,34,21.60
2008,07,11,16,35,21.60
2008,07,11,16,36,21.70
2008,07,11,16,37,21.70
2008,07,11,16,38,21.70
2008,07,11,16,39,21.80
2008,07,11,16,40,21.70
2008,07,11,16,41,21.80
2008,07,11,16,42,21.80
2008,07,11,16,43,21.80
2008,07,11,16,44,21.90
2008,07,11,16,45,21.90
2008,07,11,16,46,21.90
2008,07,11,16,47,22.00
2008,07,11,16,48,22.10
2008,07,11,16,49,22.20
2008,07,11,16,50,22.20
2008,07,11,16,51,22.20
2008,07,11,16,52,22.20
2008,07,11,16,53,22.10
2008,07,11,16,54,22.10
2008,07,11,16,55,22.20
2008,07,11,16,56,22.30
2008,07,11,16,57,22.30
2008,07,11,16,58,22.30
2008,07,11,16,59,22.30
2008,07,11,17,00,22.30
2008,07,11,17,01,22.30
2008,07,11,17,02,22.30
2008,07,11,17,03,22.40
2008,07,11,17,04,22.40
2008,07,11,17,05,22.50
2008,07,11,17,06,22.60
2008,07,11,17,07,22.60
2008,07,11,17,08,22.60
2008,07,11,17,09,22.60
2008,07,11,17,10,22.60
2008,07,11,17,11,22.70
2008,07,11,17,12,22.70
2008,07,11,17,13,22.80
2008,07,11,17,14,22.80
2008,07,11,17,15,22.80
2008,07,11,17,16,22.90
2008,07,11,17,17,22.90
2008,07,11,17,18,22.90
2008,07,11,17,19,22.90